Tracking 21094 objects as of 12-Aug-2020
HD Live streaming from Space Station
objects crossing your sky now
Track the most recent launched group of Starlink satellites

DMSP 5D-2 F11 DEB

Track DMSP 5D-2 F11 DEB now!
10-day predictions


NORAD ID: 28309
Int'l Code: 1991-082W
Perigee: 816.4 km
Apogee: 836.6 km
Inclination: 98.8 °
Period: 101.3 minutes
Semi major axis: 7197 km
RCS: 0.0137 m2 (small)
Launch date: November 28, 1991
Source: United States (US)
Launch site: AIR FORCE WESTERN TEST RANGE (AFWTR)

Note: This is SATELLITE DEBRIS
aabbcc
Your satellite tracking list
Your tracking list is empty




NASA's NSSDC Master Catalog

Two Line Element Set (TLE):
1 28309U 91082W   20224.79910622 -.00000007 +00000-0 +16992-4 0  9997
2 28309 098.7883 228.0015 0014037 295.4267 239.8475 14.21775085846023
Source of the keplerian elements: AFSPC